Time,TemperatureF,DewpointF,PressureIn,WindDirection,WindDirectionDegrees,WindSpeedMPH,WindSpeedGustMPH,Humidity,HourlyPrecipIn,Conditions,Clouds,dailyrainin,SoftwareType,DateUTC
2013-02-13 00:00:00,40.2,37.5,29.64,NW,311,2.0,8.0,90,0.03,RA,FEW,0.00,WeatherDisplay:10.37,2013-02-12 23:00:00,
2013-02-13 00:30:00,39.5,37.1,29.65,WSW,239,1.0,5.0,91,0.06,RA,FEW,0.03,WeatherDisplay:10.37,2013-02-12 23:30:00,
2013-02-13 01:00:00,39.4,37.3,29.65,SSE,163,1.0,4.0,92,0.06,RA,FEW,0.06,WeatherDisplay:10.37,2013-02-13 00:00:00,
2013-02-13 01:30:00,39.2,37.3,29.65,SSE,163,0.0,2.0,93,0.07,RA,FEW,0.10,WeatherDisplay:10.37,2013-02-13 00:30:00,
2013-02-13 02:00:00,39.0,37.2,29.64,SSE,163,0.0,2.0,93,0.06,RA,FEW,0.12,WeatherDisplay:10.37,2013-02-13 01:00:00,
2013-02-13 02:30:00,38.9,37.3,29.63,SSE,163,0.0,3.0,94,0.02,RA,FEW,0.13,WeatherDisplay:10.37,2013-02-13 01:30:00,
2013-02-13 03:00:00,38.8,37.2,29.63,SSE,163,0.0,2.0,94,0.01,CLR,FEW,0.13,WeatherDisplay:10.37,2013-02-13 02:00:00,
2013-02-13 03:30:00,38.7,37.1,29.63,SSE,163,0.0,0.0,94,0.00,CLR,FEW,0.13,WeatherDisplay:10.37,2013-02-13 02:30:00,
2013-02-13 04:00:00,38.6,37.0,29.63,SSE,163,0.0,2.0,94,0.00,CLR,FEW,0.13,WeatherDisplay:10.37,2013-02-13 03:00:00,
2013-02-13 04:30:00,38.6,37.0,29.63,SSE,163,0.0,2.0,94,0.00,CLR,FEW,0.13,WeatherDisplay:10.37,2013-02-13 03:30:00,
2013-02-13 05:00:00,38.5,36.9,29.63,SSE,163,0.0,0.0,94,0.00,CLR,FEW,0.13,WeatherDisplay:10.37,2013-02-13 04:00:00,
2013-02-13 05:30:00,38.4,36.8,29.63,SSE,163,0.0,3.0,94,0.00,CLR,FEW,0.13,WeatherDisplay:10.37,2013-02-13 04:30:00,
2013-02-13 06:00:00,38.4,37.1,29.64,SSE,163,0.0,3.0,95,0.00,CLR,FEW,0.13,WeatherDisplay:10.37,2013-02-13 05:00:00,
2013-02-13 06:30:00,38.5,37.2,29.64,SSE,163,0.0,2.0,95,0.00,CLR,FEW,0.13,WeatherDisplay:10.37,2013-02-13 05:30:00,
2013-02-13 07:00:00,38.7,37.1,29.63,ENE,70,1.0,4.0,94,0.00,CLR,FEW,0.13,WeatherDisplay:10.37,2013-02-13 06:00:00,
2013-02-13 07:30:00,38.9,37.3,29.64,ENE,70,0.0,3.0,94,0.00,CLR,FEW,0.13,WeatherDisplay:10.37,2013-02-13 06:30:00,
2013-02-13 08:00:00,38.9,37.3,29.65,ENE,70,0.0,2.0,94,0.00,CLR,FEW,0.13,WeatherDisplay:10.37,2013-02-13 07:00:00,
2013-02-13 08:30:00,39.2,37.6,29.67,ENE,70,0.0,1.0,94,0.00,CLR,FEW,0.13,WeatherDisplay:10.37,2013-02-13 07:30:00,
2013-02-13 09:00:00,39.8,38.2,29.67,ENE,70,0.0,0.0,94,0.00,CLR,FEW,0.13,WeatherDisplay:10.37,2013-02-13 08:00:00,
2013-02-13 09:30:00,40.7,39.1,29.68,ENE,70,0.0,3.0,94,0.00,CLR,FEW,0.13,WeatherDisplay:10.37,2013-02-13 08:30:00,
2013-02-13 10:00:00,41.8,39.7,29.68,ENE,70,0.0,2.0,92,0.00,CLR,FEW,0.13,WeatherDisplay:10.37,2013-02-13 09:00:00,
2013-02-13 10:30:00,43.9,39.7,29.68,ENE,74,1.0,3.0,85,0.00,CLR,FEW,0.13,WeatherDisplay:10.37,2013-02-13 09:30:00,
2013-02-13 11:00:00,44.9,39.1,29.69,ENE,74,0.0,3.0,80,0.00,CLR,FEW,0.13,WeatherDisplay:10.37,2013-02-13 10:00:00,
2013-02-13 11:30:00,46.6,40.4,29.69,ENE,74,0.0,3.0,79,0.00,CLR,FEW,0.13,WeatherDisplay:10.37,2013-02-13 10:30:00,
2013-02-13 12:00:00,46.9,40.1,29.68,SE,128,1.0,5.0,77,0.00,CLR,FEW,0.13,WeatherDisplay:10.37,2013-02-13 11:00:00,
2013-02-13 12:30:00,48.6,41.3,29.68,South,187,1.0,6.0,76,0.00,CLR,FEW,0.13,WeatherDisplay:10.37,2013-02-13 11:30:00,
2013-02-13 13:00:00,48.0,41.5,29.69,SW,229,2.0,5.0,78,0.00,CLR,FEW,0.13,WeatherDisplay:10.37,2013-02-13 12:00:00,
2013-02-13 13:30:00,47.2,39.0,29.68,SW,231,0.0,5.0,73,0.00,CLR,FEW,0.13,WeatherDisplay:10.37,2013-02-13 12:30:00,
2013-02-13 14:00:00,47.0,39.1,29.67,South,176,0.0,6.0,74,0.00,CLR,FEW,0.13,WeatherDisplay:10.37,2013-02-13 13:00:00,
2013-02-13 14:30:00,48.2,40.9,29.67,South,176,0.0,6.0,76,0.00,CLR,FEW,0.13,WeatherDisplay:10.37,2013-02-13 13:30:00,
2013-02-13 15:00:00,48.9,40.6,29.67,South,191,5.0,12.0,73,0.00,CLR,FEW,0.13,WeatherDisplay:10.37,2013-02-13 14:00:00,
2013-02-13 15:30:00,49.3,39.2,29.68,SW,215,1.0,5.0,68,0.00,CLR,FEW,0.13,WeatherDisplay:10.37,2013-02-13 14:30:00,
2013-02-13 16:00:00,48.1,39.1,29.68,South,178,1.0,7.0,71,0.00,CLR,FEW,0.13,WeatherDisplay:10.37,2013-02-13 15:00:00,
2013-02-13 16:30:00,47.9,39.3,29.70,South,180,1.0,7.0,72,0.00,CLR,FEW,0.13,WeatherDisplay:10.37,2013-02-13 15:30:00,
2013-02-13 17:00:00,46.2,37.0,29.71,South,170,1.0,6.0,70,0.00,CLR,FEW,0.13,WeatherDisplay:10.37,2013-02-13 16:00:00,
2013-02-13 17:30:00,44.4,36.2,29.71,South,173,0.0,6.0,73,0.00,CLR,FEW,0.13,WeatherDisplay:10.37,2013-02-13 16:30:00,
2013-02-13 18:00:00,42.1,36.1,29.72,South,173,0.0,2.0,79,0.00,CLR,FEW,0.13,WeatherDisplay:10.37,2013-02-13 17:00:00,
2013-02-13 18:30:00,41.2,35.8,29.73,South,172,0.0,3.0,81,0.00,CLR,FEW,0.13,WeatherDisplay:10.37,2013-02-13 17:30:00,
2013-02-13 19:00:00,40.3,35.5,29.74,South,172,0.0,2.0,83,0.00,CLR,FEW,0.13,WeatherDisplay:10.37,2013-02-13 18:00:00,
2013-02-13 19:30:00,38.7,34.3,29.74,South,172,0.0,1.0,84,0.00,CLR,FEW,0.13,WeatherDisplay:10.37,2013-02-13 18:30:00,
2013-02-13 20:00:00,40.6,37.0,29.75,South,172,1.0,3.0,87,0.00,CLR,FEW,0.13,WeatherDisplay:10.37,2013-02-13 19:00:00,
2013-02-13 20:30:00,40.6,36.7,29.76,ESE,106,0.0,3.0,86,0.00,CLR,FEW,0.13,WeatherDisplay:10.37,2013-02-13 19:30:00,
2013-02-13 21:00:00,40.3,36.4,29.77,ESE,106,0.0,7.0,86,0.00,CLR,FEW,0.13,WeatherDisplay:10.37,2013-02-13 20:00:00,
2013-02-13 21:30:00,41.0,37.1,29.77,ESE,107,0.0,5.0,86,0.00,CLR,FEW,0.13,WeatherDisplay:10.37,2013-02-13 20:30:00,
2013-02-13 22:00:00,41.1,36.9,29.79,ESE,107,0.0,2.0,85,0.00,CLR,FEW,0.13,WeatherDisplay:10.37,2013-02-13 21:00:00,
2013-02-13 22:30:00,41.2,37.0,29.79,ESE,107,0.0,1.0,85,0.00,CLR,FEW,0.13,WeatherDisplay:10.37,2013-02-13 21:30:00,
2013-02-13 23:00:00,41.5,37.6,29.80,ESE,107,0.0,0.0,86,0.00,CLR,FEW,0.13,WeatherDisplay:10.37,2013-02-13 22:00:00,
2013-02-13 23:30:00,41.6,37.7,29.81,ESE,107,0.0,0.0,86,0.00,CLR,FEW,0.13,WeatherDisplay:10.37,2013-02-13 22:30:00,